Wind_Speed
8 10 11 12 13 12 14 21 26 29 29 26 23 24 26 33 40 45 47 45 46 48 47 53 63 67 68 65 65 64 56 51 48 43 38 38 47 56 56 52 48 46 47 47 44 43 42 39 36 40 43 43 43 44 46 49 49 50 54 52 49 46 44 40 34 29 28 26 25 24 23 22 19 16 14 14 14 16 17 17 17 16 16 16 18 22
8 10 10 8 8 8 12 17 17 16 19 19 20 23 23 24 25 28 37 36 30 38 44 44 45 49 57 65 67 65 63 60 53 47 44 36 38 50 56 56 54 51 51 50 45 43 45 42 38 41 45 42 41 41 42 46 48 49 54 54 49 46 44 39 34 32 34 31 27 26 25 24 21 17 15 15 15 16 18 18 17 16 17 17 19 23
8 10 9 10 14 16 18 20 16 13 17 19 19 21 22 23 20 16 25 31 27 29 36 40 39 35 41 57 65 63 63 66 59 50 48 43 39 41 46 52 56 56 54 53 50 46 45 43 39 42 45 40 37 38 37 41 46 48 53 54 48 46 43 38 36 36 37 34 29 27 26 24 22 18 16 16 16 17 19 18 18 17 17 18 20 24
11 12 12 16 20 19 17 18 19 18 20 21 22 22 20 19 17 15 18 23 28 29 30 37 38 32 32 44 58 63 61 62 65 62 52 44 43 43 40 40 49 56 54 53 56 55 49 45 42 43 45 41 37 37 37 38 43 46 51 54 49 47 44 39 37 37 36 32 29 27 26 25 22 20 18 17 17 18 19 19 18 19 19 19 21 25
14 14 16 18 17 15 15 16 18 20 20 23 28 28 25 21 13 15 19 16 23 31 33 39 38 30 28 30 37 51 60 55 54 64 64 50 43 44 44 37 39 49 50 48 53 58 56 51 46 44 44 44 40 38 37 37 43 47 50 54 51 48 47 43 40 37 33 30 28 27 26 25 24 22 20 19 19 20 20 20 20 20 20 19 21 26
15 16 17 18 16 16 16 15 16 18 17 19 26 30 31 28 18 16 22 20 22 27 30 38 43 36 32 35 33 34 49 55 47 51 63 61 50 45 46 41 38 43 47 50 53 56 58 55 51 47 44 44 43 41 38 36 44 49 49 52 51 48 46 44 41 36 32 30 29 28 27 27 26 25 23 21 20 21 22 21 21 21 20 20 22 26
14 16 17 16 16 17 17 16 17 18 19 17 17 20 26 31 28 22 21 22 26 27 23 28 36 38 35 41 46 37 36 47 47 46 55 63 60 54 51 45 43 46 47 50 52 54 56 55 53 53 50 47 45 44 39 37 47 51 49 50 50 47 44 40 39 35 32 32 31 30 30 30 29 26 24 23 22 23 23 23 22 22 20 20 21 26
15 17 18 16 16 18 19 19 19 19 21 19 15 15 16 22 31 30 26 24 25 25 24 23 26 32 31 34 45 42 33 35 40 48 57 58 55 54 55 49 46 51 53 53 52 53 55 53 49 53 56 53 48 47 41 38 48 53 50 51 51 47 43 37 36 34 34 35 33 32 32 32 31 28 27 25 24 24 25 25 23 22 21 20 21 25
15 16 18 17 16 18 20 20 21 22 22 18 16 20 19 15 20 26 28 28 26 25 27 24 22 25 27 34 46 48 44 41 39 47 54 53 46 43 48 52 50 52 53 53 55 57 58 54 46 47 54 57 55 52 45 40 48 55 53 52 52 49 44 40 38 37 38 37 36 35 34 34 32 30 29 27 26 26 26 26 25 23 22 21 21 25
13 14 16 16 16 18 20 21 21 21 22 22 23 27 28 25 22 22 25 26 23 24 27 23 20 23 26 37 46 45 48 50 39 34 39 48 48 39 40 49 52 55 56 55 55 58 62 61 54 47 47 52 56 55 51 45 45 53 55 53 52 50 46 43 42 41 41 39 38 37 36 35 34 32 31 29 28 27 26 26 26 24 23 22 22 25
13 14 14 14 17 18 20 23 21 19 20 22 26 29 30 31 30 26 27 26 22 25 32 31 25 25 29 34 35 37 44 45 36 35 44 51 53 48 45 46 47 51 60 64 60 56 60 63 61 57 50 47 49 51 52 50 46 49 55 55 52 50 48 46 45 44 43 42 39 39 38 36 34 34 33 31 29 28 27 27 26 25 24 23 23 25
11 13 12 12 16 19 23 24 23 23 21 18 19 22 24 25 26 26 28 29 30 33 39 42 37 31 38 39 30 32 44 47 43 47 54 55 54 57 57 54 52 52 59 67 67 60 57 57 58 59 56 48 46 48 50 50 48 47 53 57 54 52 50 48 47 47 45 44 41 40 39 37 34 35 34 33 31 30 28 27 27 26 25 24 24 26
9 12 13 13 14 19 24 26 26 27 25 20 18 20 21 19 18 22 26 28 34 39 39 41 39 33 38 42 34 30 37 45 50 53 54 50 50 59 66 68 68 65 62 61 63 62 60 60 59 58 59 54 49 51 53 52 51 47 50 58 58 54 53 51 49 49 47 46 44 42 40 38 36 36 36 35 33 31 29 29 28 27 26 25 25 26
12 14 16 15 15 17 22 26 28 27 26 24 22 22 23 21 19 20 22 23 28 33 33 34 35 31 30 35 38 36 29 29 37 46 49 47 45 50 57 65 71 72 70 65 61 61 60 61 64 64 65 64 57 55 56 56 55 49 49 59 62 56 55 54 51 50 49 49 47 44 42 40 39 38 37 37 34 32 31 30 30 29 27 25 25 26
15 16 16 15 15 15 18 24 28 28 26 23 23 25 26 24 24 23 22 21 22 23 23 24 29 31 30 30 35 41 40 36 36 38 41 44 48 48 43 47 58 63 68 70 67 65 62 60 65 67 68 68 65 60 58 59 58 51 47 56 63 60 58 57 53 52 51 51 48 44 42 42 41 38 38 38 35 33 32 31 30 30 28 25 25 27
16 17 16 13 12 13 13 19 27 30 27 23 23 26 27 24 25 26 25 22 20 23 25 27 27 28 29 29 29 33 39 43 46 46 41 35 39 47 46 47 51 52 58 68 70 68 66 63 64 67 69 69 68 64 61 61 60 53 47 49 55 60 61 58 55 54 53 50 47 44 43 43 42 40 39 39 35 33 32 31 31 30 28 25 25 27
15 15 14 12 11 10 10 12 20 27 29 28 26 25 24 24 25 28 29 27 26 30 30 30 31 28 27 28 29 28 25 29 38 46 47 40 38 47 54 55 53 50 54 64 68 68 67 66 67 68 69 70 68 65 62 62 61 57 51 46 46 56 64 61 57 57 55 52 48 46 45 43 42 42 40 38 36 34 33 32 31 29 27 26 26 26
12 12 11 12 11 9 7 9 14 20 26 27 27 26 25 26 27 27 30 30 31 35 34 31 31 31 30 26 24 25 26 26 28 31 38 45 51 57 60 59 60 59 58 60 63 65 65 66 68 69 70 70 68 64 62 62 62 60 56 48 41 46 58 60 58 56 54 52 50 48 45 42 41 42 41 39 38 35 33 31 30 27 26 27 27 26
11 10 10 11 10 8 6 8 10 15 20 23 25 26 27 28 28 28 31 31 32 34 35 35 34 34 35 30 22 20 24 30 28 22 25 33 45 56 60 59 63 66 67 67 68 68 67 67 69 70 70 71 69 65 63 62 62 62 58 51 45 42 46 51 55 57 54 52 51 49 45 42 41 42 41 40 39 36 32 30 28 26 27 28 28 26
11 11 11 11 10 9 9 9 10 12 16 20 24 26 27 28 28 30 33 34 34 34 34 36 37 37 37 34 28 22 20 24 25 24 29 34 38 47 57 62 63 64 66 71 75 75 73 71 71 73 72 72 70 66 63 62 63 63 60 56 53 48 45 45 49 52 53 51 51 50 48 44 41 41 42 41 39 35 31 29 28 27 28 29 29 27
11 11 12 12 11 11 10 10 11 13 14 17 21 24 26 28 29 31 34 35 36 37 36 38 41 40 37 37 36 30 23 23 24 25 30 37 38 42 53 62 66 65 64 66 70 73 73 71 71 73 72 72 70 65 62 62 63 63 61 59 56 51 49 47 45 45 46 45 44 46 48 45 40 40 40 39 38 36 32 30 29 29 30 29 29 28
12 12 12 12 13 13 12 12 13 15 16 18 20 22 24 25 26 28 31 32 34 37 39 40 43 43 40 39 39 32 24 24 24 23 23 27 31 37 46 54 60 64 64 64 66 68 70 71 71 71 70 70 69 65 60 59 62 62 61 60 56 52 51 50 47 45 43 41 39 39 41 41 38 37 38 37 37 36 34 32 31 32 32 30 29 28
12 12 11 11 12 12 13 15 15 16 18 21 23 23 24 25 27 30 30 30 32 36 38 38 41 43 39 40 42 35 28 26 26 26 27 26 27 32 41 49 56 62 65 65 67 68 69 71 72 72 71 70 70 67 61 58 60 62 61 60 58 54 53 51 49 47 45 43 40 39 40 40 38 38 38 37 36 35 35 34 34 33 32 31 30 29
11 11 10 10 11 11 12 14 15 17 18 22 24 26 28 29 29 33 34 33 36 39 38 40 43 41 33 34 40 41 39 37 34 31 30 31 32 34 35 41 48 57 64 66 67 69 70 71 73 74 72 71 71 69 64 60 60 62 62 61 59 56 55 54 52 51 48 45 43 42 41 40 39 38 38 36 34 35 35 35 34 33 31 31 31 30
9 10 10 9 10 10 11 12 14 16 18 20 22 25 28 29 31 35 37 38 42 42 41 46 50 42 32 30 33 35 39 43 43 41 36 32 34 35 34 34 38 46 57 65 68 70 71 71 72 74 74 72 71 69 66 62 61 62 63 62 60 57 57 57 56 54 51 48 46 44 43 42 40 39 37 35 34 35 36 36 34 32 32 32 32 32
9 11 12 11 10 10 10 13 16 19 21 21 21 23 26 29 31 36 39 43 47 46 45 50 50 43 38 36 35 35 37 40 44 47 46 41 38 39 37 35 37 44 55 65 69 69 70 71 71 73 74 73 72 70 67 64 62 62 63 62 61 59 58 59 59 57 54 51 49 46 44 44 42 40 37 36 35 35 37 37 35 34 33 32 33 35
11 12 13 12 11 11 12 14 17 20 22 21 23 25 27 29 30 33 38 40 41 46 51 52 49 47 46 43 41 40 40 40 41 44 48 48 45 45 44 41 43 50 57 64 69 70 71 71 72 73 74 73 71 69 67 65 63 62 63 62 62 60 60 59 59 58 56 54 52 49 48 47 45 42 39 37 36 36 37 38 37 36 34 34 35 37
9 8 12 14 11 11 14 16 17 20 21 21 24 25 25 28 30 34 40 38 33 42 51 50 48 50 48 44 45 46 45 42 40 40 43 47 48 50 50 49 51 55 57 61 68 71 71 71 71 71 71 72 71 68 67 66 64 63 63 62 62 61 60 60 59 60 59 57 55 53 51 49 47 45 42 39 39 39 39 39 39 37 36 36 37 39
7 7 12 16 12 12 17 17 17 20 22 22 23 23 23 26 30 33 39 38 35 39 43 40 44 52 51 45 45 47 47 44 40 39 39 43 47 49 50 52 54 56 57 59 64 69 69 69 70 70 70 71 71 69 68 67 66 64 63 63 62 61 61 60 60 60 61 59 58 55 54 52 50 48 45 43 42 41 41 41 40 39 38 38 39 40
10 9 11 14 12 13 16 16 16 17 19 19 18 19 21 23 28 31 33 34 35 36 35 32 39 48 49 46 45 46 47 46 44 43 41 41 44 45 48 51 55 59 60 60 62 67 68 68 69 69 68 69 70 69 67 67 67 65 64 63 62 61 61 60 60 61 61 60 59 57 55 53 52 50 47 45 44 43 43 42 41 40 40 40 40 40
11 11 12 12 12 13 15 15 16 18 18 15 14 15 18 19 21 25 25 25 28 30 28 28 34 40 39 40 43 44 46 48 46 45 45 44 44 46 48 53 57 61 62 61 63 67 69 69 69 68 66 67 69 69 67 66 67 65 64 63 62 61 60 60 60 60 61 60 60 58 55 54 53 50 47 45 44 44 44 43 42 42 42 41 40 40
11 13 14 14 13 14 16 17 17 19 17 14 14 16 19 21 22 22 20 17 18 22 23 24 28 28 26 32 41 42 43 48 48 47 47 46 46 47 48 51 55 60 62 60 60 63 66 68 68 67 65 64 67 68 67 66 66 66 65 63 63 61 60 59 59 59 59 60 59 57 55 53 51 49 46 44 43 44 44 43 43 43 42 40 39 39
13 13 14 16 16 16 18 19 18 17 15 13 17 22 24 25 26 24 21 15 12 15 17 17 18 18 19 29 40 42 42 46 47 46 46 46 45 45 46 48 52 57 61 61 58 60 64 65 65 65 63 63 65 67 67 66 66 66 65 63 62 61 59 58 57 56 57 57 56 53 52 50 49 48 45 43 43 43 43 42 42 42 41 40 39 39
14 13 14 17 21 21 19 17 15 16 17 19 24 28 28 28 29 26 24 21 15 13 10 4 7 16 25 32 39 42 45 48 48 47 47 45 44 43 44 47 48 51 58 61 59 60 63 64 65 64 63 63 64 65 66 65 64 65 64 63 61 61 59 57 55 54 54 54 52 51 50 48 46 45 44 42 42 41 40 39 39 39 39 39 39 37
13 13 13 18 24 23 18 16 16 18 20 22 24 26 27 27 27 25 26 25 24 21 16 8 2 7 17 27 35 39 43 46 47 47 46 45 46 45 44 45 45 47 55 60 59 60 63 65 65 63 61 62 62 62 64 64 63 63 64 62 60 60 58 56 54 53 52 51 50 48 47 44 42 41 42 42 41 39 37 36 36 36 38 39 38 35
11 13 14 18 24 24 20 17 19 22 22 21 22 24 24 24 23 23 21 21 23 25 23 20 16 10 4 9 19 27 33 39 43 46 46 46 48 47 45 44 44 46 53 58 59 61 63 64 63 60 59 59 59 59 61 62 62 62 62 61 59 58 57 55 53 52 51 50 48 46 44 41 38 38 40 41 39 36 34 34 34 35 36 37 36 34
12 13 16 20 23 23 20 18 19 22 22 22 24 25 23 23 24 23 22 22 25 27 27 27 27 23 17 11 9 15 22 28 33 37 41 43 43 44 46 47 46 49 54 56 57 59 60 59 58 56 55 56 56 56 58 60 61 61 61 59 58 57 56 55 53 52 51 49 46 43 41 39 36 36 38 38 36 33 32 33 34 34 35 35 35 35
12 14 17 20 21 20 20 19 20 23 24 24 26 25 21 21 24 23 22 23 25 27 29 30 27 22 19 16 12 9 10 14 16 19 27 33 34 35 39 42 45 49 52 53 53 54 53 51 50 51 52 54 55 55 56 57 59 60 59 58 56 56 55 53 53 52 50 46 44 42 40 38 35 35 36 35 33 32 32 32 33 33 34 35 35 35
12 14 17 19 20 19 19 19 20 24 26 26 27 25 22 22 23 22 21 21 25 31 35 32 30 25 17 12 9 7 7 5 3 11 17 21 23 24 27 33 40 46 49 49 48 48 46 46 48 50 52 53 53 54 54 55 57 59 58 56 55 55 53 51 51 50 47 44 43 41 39 37 36 35 35 34 32 32 32 32 33 34 35 35 34 34
13 15 17 19 19 19 19 19 21 26 29 30 30 27 23 23 24 24 26 27 30 36 37 32 31 28 19 12 10 9 9 7 2 7 13 16 19 22 25 29 35 40 42 44 45 45 45 47 49 49 50 51 52 52 52 53 55 57 56 55 55 53 50 49 49 47 43 41 41 40 38 36 36 35 34 32 31 31 31 32 34 34 34 33 33 33
16 17 17 18 18 19 21 22 24 26 29 33 34 28 22 22 25 28 32 33 34 37 35 31 31 27 18 14 12 11 10 10 7 5 10 15 19 23 27 31 35 38 40 42 43 44 45 46 46 47 49 50 50 50 50 50 53 55 54 54 53 49 46 47 47 44 40 37 38 37 36 35 35 34 32 31 30 31 32 33 33 33 33 33 33 32
14 15 16 16 17 19 23 24 25 27 29 32 34 29 23 24 27 30 31 30 33 37 31 22 21 18 15 17 17 11 8 8 8 7 7 11 17 22 26 30 33 36 38 40 40 41 41 42 43 45 46 47 48 47 47 49 50 52 52 51 49 46 44 45 44 41 38 36 35 35 35 35 33 31 29 29 30 31 33 33 33 33 33 34 33 31
13 14 15 17 18 20 23 24 26 28 30 32 32 29 29 29 28 27 26 25 30 30 17 11 17 16 9 13 18 16 11 7 7 7 3 7 15 22 26 28 31 34 34 36 36 36 37 38 39 41 43 44 46 46 46 47 48 49 49 48 45 43 42 42 41 39 36 35 33 33 33 32 30 28 28 29 31 32 33 33 33 34 34 33 32 30
15 16 17 21 23 24 26 27 29 29 29 31 32 30 31 31 26 24 24 23 26 21 6 7 21 25 15 9 6 6 6 2 7 7 3 9 15 20 25 28 31 32 32 32 33 33 34 36 38 40 42 43 44 45 44 44 45 45 45 44 42 41 40 40 40 38 35 34 33 32 31 29 28 28 29 31 32 33 33 33 33 34 33 32 31 30
17 19 21 23 26 27 27 27 27 25 24 28 29 27 27 27 23 20 21 19 21 16 4 3 16 25 26 21 11 5 5 11 11 3 3 12 15 17 23 27 29 32 32 32 33 34 35 36 37 40 42 43 43 42 41 41 41 42 42 42 40 39 38 38 37 36 35 34 33 31 29 28 29 30 31 32 32 33 33 33 33 33 33 31 31 30
18 20 21 22 24 25 24 24 24 22 21 24 25 22 23 24 21 17 15 15 17 15 9 8 12 18 25 29 19 7 6 8 7 2 6 16 17 16 21 24 28 32 33 34 35 34 35 37 38 40 41 40 40 39 38 38 40 40 40 39 37 36 35 36 36 36 35 33 32 31 30 30 31 32 32 32 32 32 32 32 32 32 32 31 31 30
17 18 18 20 23 24 23 22 23 21 19 22 23 20 18 19 19 16 14 14 15 13 10 11 10 11 18 27 25 13 3 1 1 4 13 19 18 18 21 24 27 30 32 34 36 36 36 37 38 39 39 38 37 37 37 38 38 38 38 36 35 35 35 35 36 35 34 33 32 31 31 31 31 31 31 31 31 31 31 32 32 31 31 31 31 30
14 16 17 19 22 24 24 24 24 22 20 22 23 22 18 16 15 15 15 14 13 11 10 10 7 7 10 19 26 23 15 10 10 11 12 14 15 17 20 24 25 26 29 33 35 37 40 40 39 38 37 36 36 36 37 37 37 37 36 35 35 35 35 34 34 34 33 33 32 32 31 31 30 30 30 30 30 30 30 30 30 31 31 31 31 30
15 16 17 17 19 20 20 20 20 17 16 18 20 22 21 17 15 14 14 14 14 12 9 6 6 10 9 10 17 20 18 17 17 15 12 12 12 13 18 23 22 22 28 32 34 36 37 38 40 40 37 36 36 36 36 37 37 36 35 35 35 34 33 33 33 33 33 32 31 30 30 29 28 28 29 29 29 30 30 30 30 31 31 31 30 29
16 16 16 15 15 16 16 17 16 14 13 14 17 20 20 18 15 12 12 13 14 12 8 3 3 8 12 13 15 17 18 21 22 20 17 15 13 13 19 23 22 22 26 28 29 32 32 32 35 37 37 38 39 39 39 38 37 36 35 35 34 33 32 32 32 32 31 30 28 28 28 27 27 28 29 29 29 28 29 29 29 30 30 29 28 28
16 15 15 15 15 16 18 19 18 17 16 16 17 19 20 18 15 11 10 13 14 12 9 3 1 4 9 14 16 16 18 20 22 23 24 23 20 19 19 20 20 22 23 23 23 25 28 31 33 34 36 37 37 39 41 42 39 38 36 34 33 32 31 30 30 29 27 26 26 26 26 27 27 28 28 28 27 26 27 28 29 29 29 28 27 27
Wind_Direction
229 224 224 224 224 225 231 231 228 226 222 221 225 231 242 245 241 239 235 236 236 231 234 239 237 235 235 233 235 234 232 234 229 225 229 232 236 233 227 230 236 235 237 241 239 238 241 235 235 240 232 229 227 224 228 229 228 224 218 218 213 210 213 212 207 209 215 219 224 229 233 235 237 237 243 253 261 265 267 275 284 284 281 285 296 307
225 223 222 213 212 220 227 225 223 221 220 221 215 213 228 238 239 242 234 227 231 231 228 235 240 238 235 234 235 236 233 232 231 226 222 222 232 236 232 230 237 240 237 238 238 237 240 236 235 240 235 234 233 227 230 232 232 229 221 216 213 211 215 213 208 211 215 216 220 226 231 234 235 237 243 252 258 262 265 272 278 277 277 282 298 312
226 218 200 193 211 222 222 220 218 220 225 221 203 203 219 221 220 238 240 226 218 228 230 229 235 237 236 235 231 233 233 230 230 227 222 219 220 230 235 233 233 238 238 236 236 235 237 238 235 235 235 239 240 234 235 233 231 231 221 213 210 211 213 212 210 215 219 220 222 225 230 234 236 238 242 251 256 259 263 268 273 271 273 280 298 315
234 224 206 213 225 225 224 224 223 232 240 230 213 209 203 196 206 214 227 231 214 215 228 224 225 229 235 238 232 229 230 230 229 228 226 223 219 221 227 231 231 233 237 240 239 238 236 238 238 236 236 240 242 238 239 235 231 229 218 210 209 210 209 207 210 217 220 221 223 226 231 234 237 239 242 249 254 258 261 264 267 266 268 277 298 316
241 235 227 235 240 231 230 232 228 234 244 238 226 219 202 188 209 211 199 217 213 212 224 219 217 222 220 224 227 228 228 228 229 228 228 227 223 222 221 224 228 228 232 239 242 241 239 238 239 240 239 239 241 239 239 239 234 231 221 212 211 210 207 205 209 215 216 217 221 226 232 234 236 238 241 245 249 255 258 260 261 262 265 275 296 315
249 247 242 244 246 239 240 241 235 233 236 238 230 227 221 207 214 218 194 196 209 216 227 221 219 226 220 211 210 220 225 223 226 229 227 225 222 220 217 218 223 224 227 234 239 241 240 239 236 238 239 237 240 240 239 239 234 230 221 214 212 211 207 206 208 210 212 216 221 225 230 233 235 237 239 243 247 252 254 255 256 258 263 273 294 314
251 253 252 249 248 246 245 242 238 235 231 232 232 234 235 221 216 217 203 205 213 212 222 223 222 227 228 223 218 218 220 219 223 227 222 222 223 221 218 218 218 218 220 226 235 238 238 240 236 234 237 237 238 238 238 238 231 224 214 209 209 207 205 205 206 208 212 219 223 226 230 233 235 237 241 244 247 251 251 250 252 256 262 272 291 313
250 254 257 255 253 249 248 245 240 238 229 222 226 226 230 230 223 217 210 215 223 222 223 224 227 231 232 230 226 224 222 216 222 227 220 217 223 226 222 218 215 216 217 219 227 234 236 238 238 235 235 236 236 234 236 237 228 219 211 207 205 203 202 204 205 208 214 220 225 227 230 233 235 237 241 244 248 251 249 246 249 255 261 271 290 310
249 254 256 256 255 249 248 246 239 238 229 215 223 221 211 219 227 222 214 207 212 225 227 221 224 233 237 236 232 231 231 226 225 229 224 213 217 230 228 223 220 219 219 218 222 229 233 234 234 233 232 233 235 233 234 236 226 217 212 209 208 204 202 204 207 211 215 220 224 227 229 233 234 236 240 245 248 250 248 244 247 254 260 270 287 305
258 256 255 252 249 246 246 247 243 243 234 217 223 228 220 221 224 227 226 213 210 222 223 220 220 227 240 241 236 233 233 231 225 222 221 211 208 220 229 230 229 224 221 221 221 226 230 231 231 231 231 229 232 232 233 236 231 219 212 211 212 209 202 202 207 211 216 219 222 226 229 232 234 235 239 244 248 249 247 243 245 252 258 267 282 300
261 257 255 253 249 245 244 246 245 244 242 228 229 235 234 237 236 236 238 230 227 231 226 226 225 224 235 239 236 234 230 229 226 223 225 218 209 209 217 224 226 223 221 222 222 225 227 229 230 232 233 229 231 234 234 236 236 226 216 211 213 212 205 203 207 212 216 218 221 225 229 231 234 236 238 243 248 249 247 243 245 250 256 264 278 297
271 270 260 251 249 247 244 246 243 241 244 240 239 240 239 246 248 245 245 239 235 238 236 236 237 233 235 233 232 237 233 228 228 231 232 228 219 215 218 223 226 224 223 223 224 226 227 229 231 232 233 231 233 237 237 236 236 233 222 214 211 212 209 207 208 212 217 218 220 224 228 231 234 237 239 243 247 249 247 245 245 249 254 262 277 294
292 290 280 262 251 247 243 243 243 243 244 240 238 240 236 237 243 241 241 242 242 243 242 242 241 240 241 237 229 233 240 236 233 233 234 231 225 223 224 228 232 233 232 229 227 228 231 235 236 233 232 232 234 237 239 237 235 234 228 218 212 211 211 209 210 213 217 219 220 222 226 230 234 237 239 242 246 249 248 246 247 249 253 262 277 292
298 302 298 279 263 254 243 239 239 242 244 239 234 238 236 229 229 236 237 240 248 251 250 250 245 240 244 244 232 227 233 237 233 232 233 230 223 225 229 232 235 237 238 235 230 229 232 237 238 236 234 233 234 236 238 239 235 234 232 222 213 211 211 211 212 214 217 221 222 223 227 231 234 237 239 240 244 247 248 248 249 251 255 263 277 291
303 307 301 280 273 271 251 235 230 233 238 237 232 234 239 234 230 237 242 241 248 252 252 252 249 243 244 247 242 236 234 233 230 226 227 230 227 224 228 231 232 235 238 237 234 232 232 234 236 237 235 234 234 234 236 240 237 232 231 223 215 213 213 212 213 216 220 223 224 226 229 233 237 240 240 239 241 246 247 249 252 254 258 265 277 290
308 309 301 286 285 283 262 237 227 226 230 231 228 229 236 242 241 240 241 240 240 240 232 224 230 237 236 236 237 240 243 241 237 231 223 225 231 230 229 231 230 229 234 236 234 232 232 233 234 236 236 234 233 234 236 240 239 232 228 225 219 216 214 213 214 217 221 224 226 228 230 234 239 242 242 239 240 244 247 249 252 255 261 268 278 290
313 312 303 295 294 285 271 247 229 225 228 232 234 234 235 240 244 243 241 241 241 243 236 224 225 231 232 231 226 224 235 245 245 238 227 217 221 226 227 229 231 228 229 234 234 231 230 232 233 234 236 235 233 233 234 238 240 236 231 229 228 222 216 216 217 219 222 223 225 229 231 235 239 241 241 239 238 242 245 247 251 255 264 272 281 292
316 315 302 293 296 295 277 252 231 222 225 232 238 240 238 236 239 243 243 242 244 249 249 241 236 237 237 237 229 215 213 222 234 237 229 223 225 230 229 226 226 224 223 229 233 231 228 230 233 233 234 235 234 232 232 234 238 240 236 231 229 223 217 218 222 223 224 226 228 230 232 236 238 238 239 238 237 240 243 246 250 257 268 276 284 292
308 307 300 294 295 299 282 255 239 226 224 230 236 238 238 236 238 243 243 243 245 250 252 248 245 243 240 239 237 229 216 211 217 221 217 221 230 234 234 231 229 227 224 226 228 229 227 226 230 232 233 234 233 231 230 231 233 238 238 230 225 224 222 221 224 226 228 230 232 233 235 238 238 236 238 239 238 240 243 245 250 260 272 280 285 291
299 295 293 293 291 288 279 258 248 241 233 232 237 240 241 240 241 245 248 247 247 250 251 251 249 246 244 242 237 236 228 216 224 231 222 221 228 230 229 231 231 231 230 229 229 229 227 224 226 230 231 232 232 230 230 230 231 234 236 233 230 229 229 226 223 224 227 231 235 237 238 239 239 237 238 239 240 241 243 244 250 265 277 280 284 289
296 294 288 285 281 279 276 264 251 247 240 237 240 243 246 247 247 249 251 250 250 251 252 253 252 248 246 246 242 238 236 231 237 246 238 235 237 234 230 231 231 231 231 232 233 232 231 228 227 229 231 232 232 230 229 231 231 231 233 234 234 231 231 231 228 226 227 230 235 238 237 237 237 236 238 241 243 244 244 243 251 269 278 278 282 288
298 293 287 281 275 269 265 260 250 243 241 241 241 242 244 246 247 250 251 251 251 253 252 254 255 250 243 243 244 242 239 238 237 240 237 234 236 235 233 233 232 230 230 232 232 232 231 230 229 230 232 233 234 232 229 230 233 232 231 232 233 231 231 233 233 232 232 232 234 236 234 234 235 235 239 243 246 247 245 244 254 269 275 276 281 287
308 299 289 279 273 269 263 258 252 246 244 243 243 245 246 245 245 248 248 248 251 251 251 253 254 250 244 241 241 238 234 234 233 234 235 233 232 234 233 232 231 229 228 230 231 231 230 229 227 227 228 230 233 233 230 229 232 234 232 230 230 229 230 232 233 235 235 234 234 233 231 233 236 238 241 244 247 248 245 246 256 266 270 273 279 285
314 309 298 281 273 271 268 264 258 253 249 247 247 248 249 248 249 251 250 249 250 249 248 252 253 250 246 243 242 241 239 236 232 228 232 236 238 240 236 231 231 232 230 228 229 229 228 227 226 225 225 226 229 231 229 227 229 232 233 231 228 226 228 231 232 234 235 234 232 230 230 234 236 238 241 244 246 247 247 250 256 262 266 272 278 284
323 325 322 302 282 275 273 272 269 266 262 257 253 251 252 253 252 252 252 250 251 249 246 249 251 249 246 243 241 241 240 239 237 231 227 228 230 233 234 229 225 228 231 229 228 227 227 226 225 224 223 224 226 228 228 227 227 231 233 233 231 227 226 228 230 232 234 234 232 230 230 234 235 236 240 243 245 247 248 251 256 260 266 271 276 282
321 322 324 313 295 285 278 273 270 267 265 267 267 263 262 261 259 260 258 254 253 252 248 249 250 248 244 242 240 239 237 237 238 237 233 229 224 222 225 227 223 223 227 229 227 226 226 225 225 224 223 223 223 225 227 227 227 229 232 233 233 230 227 228 230 232 233 234 234 232 233 236 238 239 239 242 245 247 249 252 256 262 266 270 275 280
304 305 307 302 293 288 280 272 268 266 266 271 273 269 266 266 266 266 262 260 264 263 254 249 249 246 242 241 241 242 241 239 237 238 236 232 227 221 219 221 224 225 226 228 228 226 224 224 224 223 222 222 223 223 225 226 226 227 230 232 233 232 231 229 230 232 233 234 234 235 236 239 242 242 242 243 246 249 251 254 259 264 267 270 273 277
302 301 292 288 287 284 280 276 273 273 274 276 275 273 272 273 273 271 266 266 274 272 262 254 248 246 243 241 241 242 243 244 242 239 239 236 233 229 224 223 226 227 226 227 228 227 224 223 224 223 221 221 222 222 223 224 225 226 229 231 231 232 232 231 231 233 234 235 235 236 239 241 243 245 245 245 248 250 253 256 261 264 267 269 272 276
316 311 292 293 301 292 283 281 278 278 281 283 283 281 281 283 286 288 282 277 276 277 275 264 249 244 242 239 240 240 240 244 244 241 239 239 237 234 229 227 228 228 226 225 226 228 226 223 223 222 220 220 220 221 221 223 224 225 227 229 230 231 232 232 232 234 235 236 237 238 240 242 244 246 247 248 250 252 255 258 261 264 266 268 271 274
328 321 303 307 313 298 293 296 291 289 291 292 294 294 293 292 290 292 294 288 280 283 290 278 253 245 242 238 239 239 238 239 241 240 238 236 236 235 229 227 227 227 227 225 223 225 225 223 223 222 219 218 220 220 220 222 223 224 225 228 229 229 231 232 232 233 235 237 238 239 241 243 245 246 248 249 250 252 255 258 260 263 265 267 269 272
337 331 324 329 324 309 315 325 319 313 314 315 314 304 300 297 287 288 297 296 287 288 295 285 261 247 239 236 236 237 238 238 237 239 239 236 236 235 231 228 229 228 227 226 223 223 223 221 221 220 218 217 219 219 220 221 223 224 225 227 229 229 230 231 232 233 235 237 238 240 241 243 245 247 248 249 250 252 254 257 260 262 263 265 268 271
343 336 337 345 341 326 330 338 330 321 321 322 321 314 306 300 291 289 294 300 304 302 292 277 265 254 239 233 233 232 235 239 238 239 242 241 239 241 237 233 231 228 225 224 223 222 223 222 221 220 218 217 218 218 219 220 222 223 224 225 228 229 230 231 232 233 235 237 238 239 240 242 244 246 247 248 250 252 253 255 258 260 262 265 268 270
350 343 345 354 0 353 346 344 335 327 330 332 333 335 328 314 305 303 297 294 314 314 291 272 265 257 234 225 229 230 231 235 237 238 242 244 243 244 243 239 236 228 221 219 219 219 221 222 221 219 217 216 217 217 218 219 221 223 224 224 226 229 230 231 233 234 235 237 239 240 241 241 242 245 247 248 250 251 252 254 256 259 262 265 266 268
353 349 351 358 5 7 2 355 346 342 348 353 352 350 340 321 312 313 310 305 311 317 308 287 233 231 227 223 227 231 232 234 235 237 240 242 242 242 242 240 238 230 220 215 215 215 217 219 219 217 216 215 216 216 217 218 220 222 224 224 225 228 230 230 232 234 236 238 239 240 241 242 242 244 247 248 249 249 251 253 256 259 261 263 265 267
350 353 357 0 4 9 11 6 3 0 360 0 357 350 343 331 319 316 317 314 313 314 314 327 333 214 221 225 228 233 236 236 238 239 239 239 239 238 239 238 236 229 218 213 211 211 213 216 216 214 214 215 215 215 216 217 219 221 224 224 224 227 229 230 231 233 235 237 238 239 241 242 242 243 246 248 248 249 251 253 255 257 259 261 263 265
346 353 358 359 1 7 12 13 13 7 3 2 355 345 347 351 346 342 339 329 323 325 325 322 322 323 291 232 229 233 235 236 237 237 236 235 234 232 231 232 230 221 213 209 209 209 211 213 213 211 212 213 214 215 216 217 218 220 223 224 224 226 228 229 230 232 234 235 236 238 239 240 240 241 244 247 248 250 251 253 254 255 257 259 260 261
356 357 1 1 3 7 10 16 20 11 3 4 0 353 354 358 1 4 3 353 349 350 344 334 325 320 318 307 262 238 237 239 239 236 232 231 230 229 228 225 219 210 205 205 207 208 210 211 210 209 211 212 213 214 215 216 217 220 223 224 225 226 227 228 230 231 232 233 234 235 237 237 237 239 242 245 246 248 249 250 251 252 254 255 256 256
15 14 10 5 6 11 11 14 19 12 5 8 9 2 357 359 3 6 3 1 3 0 351 349 352 345 325 304 285 275 273 264 249 234 231 231 229 228 227 222 213 204 200 202 205 206 208 209 209 210 210 211 211 213 214 215 216 219 222 224 225 226 226 228 230 232 233 234 234 234 235 236 236 237 240 242 244 245 247 248 249 250 250 251 252 254
21 18 12 6 8 10 8 10 15 10 6 11 13 4 359 5 9 5 3 8 13 12 10 13 22 20 2 332 317 334 349 330 219 187 201 213 213 210 212 211 207 201 197 198 202 204 205 206 208 208 209 209 210 211 213 213 215 217 220 223 225 226 226 227 230 232 234 236 236 235 235 236 236 236 238 240 242 244 245 246 247 247 248 249 251 252
4 3 5 9 12 10 4 5 9 8 6 8 8 2 360 4 5 4 8 13 18 21 21 24 31 30 18 4 7 15 20 18 43 147 156 166 171 175 181 188 193 195 194 195 197 199 201 203 205 206 206 207 208 211 212 213 214 216 219 221 224 226 226 227 230 233 234 236 237 236 235 235 234 235 237 239 241 243 244 244 245 246 248 250 251 252
355 354 360 6 11 10 7 8 8 8 6 2 1 0 359 0 6 12 12 10 14 20 19 22 33 34 15 9 30 35 29 33 39 80 127 144 154 161 169 176 183 187 189 191 192 194 198 201 202 203 203 205 207 209 211 212 213 215 218 220 223 225 225 227 230 232 233 235 236 235 234 234 233 234 236 238 240 241 242 243 245 247 249 249 250 251
353 354 359 3 9 11 10 7 7 8 6 2 360 0 358 0 12 19 14 8 11 17 17 20 33 33 12 15 33 37 25 43 64 70 103 143 155 162 169 174 179 182 184 186 189 192 196 198 199 200 201 203 206 209 211 212 213 215 217 219 222 223 223 226 229 231 231 233 234 233 233 233 233 233 235 237 239 240 241 243 245 247 248 249 249 249
2 2 2 4 11 15 12 7 4 4 5 4 2 1 358 1 10 15 14 13 13 18 31 46 36 37 35 27 33 39 39 59 92 80 92 170 165 165 169 171 174 177 179 183 186 189 193 195 196 198 201 203 205 208 210 211 213 214 216 218 220 221 222 224 227 229 229 231 232 231 231 232 233 233 234 237 238 240 242 244 245 246 247 248 248 247
6 6 7 8 9 10 10 7 4 3 4 4 2 358 357 1 7 10 14 17 15 19 63 77 31 30 43 59 58 35 23 136 144 98 119 189 178 171 170 168 170 174 175 178 182 185 188 192 193 196 200 202 205 208 209 210 212 213 215 217 219 220 221 223 225 227 228 229 230 230 230 232 233 234 236 237 239 241 242 243 244 245 246 246 245 245
5 7 8 8 6 3 3 4 4 4 7 8 3 354 353 2 8 10 14 15 13 13 357 321 4 11 24 51 94 190 211 179 177 101 123 181 182 175 174 172 171 173 173 175 179 181 185 189 192 195 199 202 205 207 209 209 210 212 213 215 217 218 219 221 223 225 227 228 230 231 231 233 235 237 238 240 241 243 243 243 244 244 245 244 243 244
1 4 3 2 2 2 2 3 3 3 4 6 5 354 352 3 11 15 20 15 8 9 353 322 321 332 4 43 82 157 199 183 210 289 147 167 173 173 177 178 176 175 173 173 176 179 184 188 191 195 199 202 205 207 207 208 208 209 212 213 215 216 218 219 222 224 227 228 230 232 233 234 236 239 240 242 243 243 242 242 243 243 242 241 242 244
350 355 355 355 358 2 3 1 0 1 356 358 5 4 358 5 12 17 23 15 4 7 2 348 338 334 11 50 82 111 109 86 160 109 132 152 162 167 176 179 177 176 176 175 175 177 183 188 192 196 199 201 203 204 205 205 206 207 209 210 211 213 215 217 220 223 226 229 231 234 235 237 239 241 242 243 244 243 242 243 242 241 241 241 243 245
339 345 347 351 355 0 3 360 359 2 356 352 4 13 8 8 17 23 25 15 1 1 360 1 33 67 55 65 83 93 91 99 118 120 128 149 162 167 171 175 178 179 177 176 175 176 181 187 191 195 198 200 200 202 202 203 203 204 204 205 208 210 212 215 219 222 226 229 231 234 236 238 240 242 243 243 242 241 241 241 240 240 240 242 244 245
332 333 336 345 350 351 355 359 360 1 354 347 359 14 16 17 27 33 27 15 5 5 6 12 67 93 97 92 92 95 97 103 108 110 118 137 149 149 149 156 169 177 176 173 171 173 179 185 187 189 193 195 196 197 199 199 199 199 200 202 206 209 211 214 218 221 224 227 230 233 236 238 239 240 240 240 239 239 239 239 239 240 241 243 244 245
330 324 322 329 332 331 340 355 0 359 358 354 358 10 19 23 28 33 29 17 11 14 20 24 87 100 108 114 110 105 101 98 97 98 105 119 129 131 135 144 154 164 170 172 169 170 176 183 185 186 189 191 193 193 193 195 196 196 198 201 204 207 210 213 217 221 224 228 231 233 235 236 236 235 235 236 237 238 238 240 241 242 244 245 246 245
335 329 324 327 332 333 339 350 353 351 356 359 358 5 16 20 22 29 29 18 11 13 21 31 165 132 123 126 124 115 105 97 92 90 94 103 113 120 128 139 146 152 161 168 169 169 173 177 180 181 183 186 190 191 190 190 192 194 197 200 203 206 210 213 218 222 225 227 230 231 232 232 232 232 233 234 236 237 238 240 241 243 244 244 245 244
Height
5656 5657 5658 5660 5663 5665 5667 5669 5671 5675 5678 5682 5686 5689 5690 5693 5694 5697 5702 5706 5709 5712 5713 5715 5718 5721 5727 5732 5734 5739 5746 5748 5752 5757 5761 5766 5767 5770 5775 5775 5774 5778 5781 5782 5786 5789 5789 5794 5798 5798 5800 5804 5808 5811 5814 5816 5819 5820 5822 5824 5827 5830 5833 5836 5839 5841 5845 5847 5849 5851 5852 5854 5855 5856 5857 5858 5859 5860 5862 5863 5864 5865 5865 5865 5866 5866
5655 5656 5658 5660 5662 5665 5666 5666 5668 5672 5676 5678 5681 5685 5689 5691 5693 5695 5698 5703 5707 5708 5710 5714 5715 5716 5719 5724 5729 5734 5739 5742 5747 5751 5755 5762 5765 5766 5770 5773 5772 5773 5777 5779 5782 5785 5785 5790 5795 5795 5796 5800 5804 5808 5811 5812 5815 5818 5819 5821 5825 5828 5832 5834 5836 5839 5842 5844 5846 5848 5850 5851 5853 5854 5855 5856 5858 5859 5860 5861 5863 5864 5864 5864 5865 5864
5654 5656 5658 5659 5659 5661 5662 5664 5666 5669 5671 5673 5676 5681 5684 5687 5691 5694 5695 5699 5704 5705 5708 5712 5713 5714 5714 5717 5723 5728 5731 5736 5741 5745 5750 5756 5761 5763 5765 5770 5771 5769 5770 5775 5778 5781 5783 5786 5791 5793 5793 5796 5800 5803 5806 5808 5811 5813 5815 5818 5822 5826 5829 5832 5834 5836 5839 5842 5844 5846 5848 5850 5851 5853 5854 5855 5856 5858 5859 5860 5861 5862 5863 5863 5863 5863
5654 5655 5656 5656 5656 5658 5660 5663 5665 5666 5667 5669 5672 5675 5678 5683 5687 5692 5695 5696 5700 5704 5706 5707 5707 5709 5709 5711 5716 5722 5725 5730 5734 5739 5745 5750 5755 5759 5762 5765 5768 5767 5767 5769 5772 5775 5779 5783 5786 5789 5790 5793 5796 5799 5802 5804 5807 5810 5812 5816 5819 5823 5826 5829 5832 5834 5837 5839 5841 5843 5846 5848 5850 5851 5852 5853 5855 5856 5857 5859 5860 5861 5861 5862 5862 5861
5653 5654 5654 5654 5656 5658 5659 5661 5662 5664 5665 5667 5668 5670 5674 5678 5682 5687 5691 5693 5697 5700 5699 5699 5700 5700 5702 5705 5710 5716 5722 5726 5730 5733 5739 5745 5749 5754 5758 5761 5764 5766 5765 5765 5765 5769 5774 5779 5783 5785 5787 5790 5793 5796 5799 5802 5804 5808 5811 5813 5816 5819 5822 5825 5828 5832 5834 5837 5839 5842 5844 5846 5848 5849 5850 5852 5853 5855 5856 5857 5858 5859 5860 5860 5860 5860
5651 5652 5653 5654 5655 5657 5658 5659 5661 5662 5664 5665 5667 5669 5671 5674 5677 5681 5684 5687 5690 5693 5692 5693 5693 5692 5694 5697 5703 5710 5715 5720 5725 5728 5732 5739 5744 5748 5752 5756 5760 5763 5765 5762 5761 5763 5767 5774 5779 5781 5784 5787 5790 5793 5797 5800 5801 5804 5808 5811 5813 5816 5819 5822 5825 5828 5831 5834 5837 5839 5842 5844 5845 5847 5848 5850 5852 5853 5854 5855 5856 5857 5858 5858 5859 5858
5650 5650 5651 5653 5654 5655 5657 5658 5659 5660 5662 5665 5666 5668 5669 5670 5673 5677 5681 5683 5684 5686 5689 5689 5687 5687 5690 5693 5699 5705 5710 5717 5722 5723 5726 5732 5738 5741 5745 5750 5754 5757 5761 5760 5758 5758 5761 5767 5773 5777 5781 5784 5787 5789 5793 5797 5798 5800 5804 5807 5810 5813 5817 5820 5822 5825 5828 5831 5834 5837 5839 5841 5843 5845 5847 5848 5850 5851 5853 5854 5855 5855 5856 5857 5857 5857
5648 5649 5649 5651 5652 5653 5654 5656 5657 5658 5660 5663 5664 5665 5666 5667 5670 5672 5677 5680 5681 5683 5685 5686 5685 5685 5686 5689 5694 5700 5704 5712 5716 5715 5720 5728 5733 5736 5739 5744 5748 5751 5754 5756 5755 5754 5756 5761 5768 5773 5776 5780 5783 5786 5790 5794 5795 5797 5801 5803 5806 5809 5813 5817 5819 5822 5826 5829 5832 5834 5836 5838 5840 5843 5844 5846 5848 5850 5851 5852 5853 5854 5854 5855 5856 5855
5646 5647 5648 5649 5650 5651 5652 5653 5654 5655 5657 5660 5660 5660 5662 5664 5667 5669 5671 5673 5677 5680 5680 5681 5683 5682 5682 5684 5689 5694 5698 5704 5708 5711 5718 5726 5730 5733 5736 5739 5743 5746 5749 5753 5753 5751 5752 5757 5763 5767 5771 5775 5779 5783 5787 5790 5792 5794 5797 5800 5802 5804 5808 5813 5816 5819 5822 5826 5829 5831 5833 5836 5838 5840 5842 5844 5846 5847 5849 5850 5851 5852 5853 5854 5854 5854
5645 5646 5646 5647 5648 5649 5649 5650 5651 5653 5654 5656 5656 5656 5659 5660 5662 5665 5666 5668 5671 5672 5672 5675 5678 5679 5679 5681 5685 5691 5693 5698 5705 5709 5713 5718 5724 5729 5732 5734 5736 5740 5744 5748 5749 5747 5748 5753 5758 5762 5766 5769 5774 5779 5783 5787 5789 5791 5793 5797 5800 5802 5805 5809 5813 5816 5819 5822 5826 5828 5830 5833 5835 5838 5840 5841 5843 5845 5847 5848 5850 5851 5851 5852 5853 5853
5643 5644 5644 5645 5646 5647 5648 5648 5649 5651 5651 5652 5653 5654 5657 5658 5659 5661 5662 5665 5666 5665 5666 5670 5673 5676 5676 5677 5682 5686 5689 5695 5701 5703 5705 5710 5717 5722 5725 5727 5729 5731 5735 5740 5743 5744 5744 5748 5753 5757 5762 5766 5770 5774 5779 5782 5786 5788 5790 5794 5797 5800 5802 5806 5810 5814 5816 5819 5822 5825 5827 5830 5833 5835 5837 5839 5840 5842 5844 5846 5848 5849 5850 5851 5851 5851
5641 5642 5642 5643 5644 5645 5645 5646 5647 5648 5649 5650 5652 5653 5655 5656 5657 5659 5659 5661 5660 5659 5663 5667 5670 5671 5670 5673 5679 5682 5685 5691 5695 5697 5700 5706 5713 5717 5718 5720 5722 5724 5728 5734 5738 5741 5742 5744 5749 5754 5758 5763 5766 5769 5773 5778 5781 5785 5788 5791 5795 5798 5800 5803 5807 5810 5813 5816 5819 5822 5824 5827 5830 5832 5835 5837 5838 5840 5842 5844 5846 5847 5848 5849 5849 5850
5640 5641 5641 5640 5641 5642 5642 5643 5645 5645 5646 5649 5650 5651 5653 5654 5655 5655 5655 5656 5655 5657 5661 5665 5667 5666 5664 5669 5676 5678 5681 5686 5689 5692 5696 5701 5707 5710 5711 5713 5716 5718 5724 5730 5735 5739 5740 5741 5744 5750 5753 5758 5762 5765 5769 5773 5777 5781 5785 5788 5791 5795 5797 5800 5804 5807 5810 5813 5815 5818 5821 5824 5827 5829 5832 5835 5836 5838 5840 5842 5843 5845 5846 5847 5847 5848
5638 5638 5638 5638 5638 5638 5639 5640 5642 5643 5644 5646 5648 5649 5650 5652 5652 5652 5653 5653 5653 5655 5659 5663 5663 5662 5662 5666 5671 5674 5677 5680 5683 5688 5693 5696 5700 5703 5706 5709 5712 5714 5718 5724 5729 5733 5736 5737 5738 5743 5748 5752 5758 5762 5765 5769 5774 5778 5782 5785 5788 5791 5794 5797 5800 5804 5807 5809 5812 5815 5818 5821 5824 5827 5829 5832 5834 5835 5837 5839 5841 5842 5844 5845 5845 5845
5636 5636 5636 5636 5635 5635 5635 5636 5638 5640 5641 5643 5646 5646 5646 5648 5650 5650 5651 5652 5652 5654 5657 5659 5658 5658 5660 5663 5667 5670 5672 5674 5678 5683 5687 5690 5693 5697 5699 5702 5706 5710 5713 5717 5722 5726 5731 5733 5733 5736 5741 5747 5753 5758 5761 5764 5769 5775 5779 5781 5785 5788 5791 5794 5797 5801 5804 5807 5810 5813 5816 5818 5821 5824 5826 5829 5831 5833 5835 5836 5838 5840 5841 5842 5843 5843
5634 5633 5633 5633 5632 5632 5632 5633 5635 5637 5638 5640 5642 5643 5644 5646 5648 5648 5648 5649 5650 5650 5650 5652 5652 5652 5656 5659 5663 5666 5667 5669 5672 5677 5682 5685 5688 5691 5692 5695 5701 5706 5708 5709 5714 5720 5725 5728 5729 5731 5735 5740 5747 5753 5758 5760 5763 5770 5776 5779 5783 5786 5789 5792 5795 5797 5801 5804 5808 5811 5813 5816 5819 5821 5823 5826 5829 5830 5832 5833 5835 5837 5838 5840 5841 5841
5633 5632 5631 5631 5631 5630 5631 5631 5632 5634 5636 5637 5639 5641 5643 5644 5644 5644 5645 5645 5646 5644 5645 5649 5649 5650 5651 5653 5656 5661 5664 5667 5668 5671 5676 5679 5679 5681 5684 5689 5695 5701 5703 5704 5708 5714 5720 5722 5724 5726 5729 5734 5741 5748 5754 5757 5759 5765 5772 5777 5780 5782 5785 5788 5792 5794 5797 5801 5805 5808 5810 5813 5816 5818 5820 5823 5826 5828 5829 5830 5832 5834 5835 5837 5838 5838
5632 5631 5630 5629 5629 5629 5630 5630 5631 5632 5634 5635 5637 5639 5641 5641 5641 5640 5641 5642 5642 5641 5643 5647 5647 5648 5649 5649 5652 5655 5660 5663 5665 5666 5670 5673 5672 5673 5677 5682 5685 5690 5695 5697 5701 5708 5713 5717 5719 5721 5725 5729 5735 5743 5750 5754 5757 5760 5767 5773 5776 5779 5783 5787 5789 5792 5795 5798 5801 5804 5807 5811 5813 5815 5817 5820 5822 5824 5826 5828 5830 5832 5833 5834 5835 5835
5631 5630 5629 5629 5628 5629 5629 5630 5631 5631 5632 5634 5635 5637 5637 5638 5638 5637 5637 5638 5639 5638 5640 5642 5643 5644 5645 5647 5650 5651 5654 5658 5660 5661 5665 5669 5669 5669 5672 5676 5679 5684 5688 5691 5694 5699 5705 5711 5714 5716 5720 5724 5730 5738 5745 5750 5754 5757 5762 5769 5773 5776 5781 5784 5787 5790 5793 5796 5798 5801 5805 5807 5810 5813 5815 5817 5819 5821 5824 5826 5827 5829 5830 5831 5832 5833
5630 5630 5629 5628 5628 5628 5629 5630 5630 5631 5632 5632 5633 5633 5634 5635 5636 5635 5634 5635 5636 5635 5636 5637 5637 5638 5641 5644 5647 5649 5650 5653 5654 5654 5658 5661 5663 5662 5665 5669 5674 5680 5684 5687 5690 5694 5700 5706 5709 5711 5715 5719 5724 5732 5740 5745 5750 5754 5758 5764 5769 5774 5777 5780 5783 5786 5790 5793 5796 5798 5802 5804 5807 5810 5812 5814 5816 5819 5822 5824 5825 5826 5828 5829 5829 5830
5629 5629 5628 5627 5628 5628 5628 5628 5629 5629 5630 5630 5630 5631 5632 5632 5633 5633 5632 5632 5632 5632 5632 5632 5631 5633 5638 5641 5642 5645 5648 5649 5649 5649 5651 5652 5654 5657 5659 5662 5669 5674 5679 5682 5686 5691 5697 5703 5707 5709 5712 5715 5720 5727 5736 5741 5745 5750 5755 5759 5764 5770 5773 5776 5780 5783 5786 5790 5793 5795 5798 5801 5804 5807 5809 5811 5814 5817 5820 5821 5822 5823 5825 5826 5827 5827
5627 5627 5626 5626 5626 5626 5627 5627 5627 5628 5628 5628 5628 5629 5629 5630 5630 5629 5628 5629 5629 5628 5628 5627 5624 5627 5633 5636 5637 5640 5642 5644 5646 5646 5646 5646 5648 5651 5653 5657 5662 5668 5672 5676 5680 5685 5690 5697 5702 5706 5709 5713 5717 5723 5732 5737 5739 5744 5751 5755 5760 5765 5768 5772 5775 5778 5782 5786 5789 5791 5794 5798 5801 5804 5806 5809 5811 5814 5817 5819 5820 5821 5822 5823 5824 5824
5626 5625 5625 5624 5624 5624 5624 5624 5625 5625 5626 5626 5626 5626 5627 5627 5627 5626 5625 5626 5625 5623 5623 5622 5618 5620 5628 5631 5631 5633 5635 5637 5641 5642 5643 5643 5644 5646 5648 5651 5655 5659 5664 5669 5673 5678 5683 5689 5695 5699 5704 5709 5712 5718 5726 5732 5734 5738 5744 5750 5756 5760 5764 5767 5771 5774 5778 5782 5786 5788 5791 5794 5797 5800 5802 5805 5808 5810 5813 5816 5818 5819 5819 5819 5820 5822
5624 5623 5622 5622 5622 5622 5622 5622 5622 5622 5623 5623 5623 5624 5623 5623 5623 5622 5621 5621 5619 5617 5618 5616 5611 5614 5623 5626 5626 5628 5629 5630 5633 5636 5638 5639 5641 5643 5644 5646 5649 5652 5657 5662 5666 5671 5676 5682 5687 5692 5698 5703 5708 5713 5720 5726 5730 5733 5737 5744 5750 5756 5759 5762 5766 5770 5774 5779 5781 5784 5787 5790 5793 5796 5799 5802 5805 5807 5809 5812 5814 5816 5816 5816 5817 5818
5623 5622 5621 5620 5620 5620 5620 5620 5620 5619 5619 5619 5620 5620 5619 5619 5619 5617 5616 5615 5611 5611 5614 5609 5604 5611 5619 5620 5620 5622 5623 5624 5626 5628 5631 5633 5636 5639 5640 5642 5644 5645 5648 5652 5658 5664 5669 5675 5681 5686 5692 5698 5703 5709 5715 5721 5725 5728 5732 5738 5744 5750 5755 5758 5761 5765 5770 5774 5777 5780 5783 5786 5789 5793 5796 5799 5802 5805 5806 5808 5810 5812 5812 5813 5814 5814
5623 5621 5620 5619 5618 5618 5618 5618 5617 5616 5616 5615 5616 5616 5614 5614 5614 5611 5610 5607 5603 5605 5607 5601 5599 5607 5613 5613 5614 5615 5616 5617 5619 5621 5623 5626 5628 5632 5635 5636 5638 5639 5641 5645 5651 5657 5663 5669 5674 5679 5686 5692 5698 5705 5710 5716 5721 5725 5729 5733 5738 5744 5750 5753 5756 5761 5766 5770 5773 5776 5779 5781 5785 5789 5793 5796 5799 5801 5803 5804 5806 5808 5808 5809 5810 5811
5621 5620 5619 5618 5617 5616 5616 5615 5614 5613 5612 5612 5612 5611 5610 5609 5609 5606 5602 5600 5600 5599 5595 5594 5596 5601 5604 5607 5608 5609 5609 5611 5613 5614 5616 5618 5620 5623 5626 5629 5631 5634 5637 5641 5645 5650 5656 5662 5668 5674 5681 5688 5694 5701 5707 5712 5717 5721 5725 5729 5733 5738 5744 5748 5752 5756 5761 5765 5769 5772 5775 5778 5781 5785 5789 5793 5795 5798 5799 5800 5802 5803 5805 5806 5806 5807
5620 5619 5618 5616 5615 5615 5614 5613 5612 5610 5609 5609 5608 5607 5606 5605 5603 5601 5595 5594 5596 5590 5582 5587 5593 5592 5595 5601 5601 5602 5603 5604 5607 5608 5609 5611 5612 5615 5619 5622 5624 5627 5631 5635 5638 5644 5651 5657 5663 5670 5677 5683 5690 5697 5702 5707 5713 5717 5721 5725 5730 5734 5739 5743 5748 5752 5756 5760 5764 5768 5772 5775 5778 5782 5786 5789 5792 5794 5795 5796 5798 5799 5801 5802 5803 5804
5618 5618 5616 5614 5614 5613 5611 5610 5610 5608 5606 5606 5605 5603 5603 5601 5598 5594 5590 5589 5589 5581 5574 5581 5586 5582 5585 5593 5594 5596 5598 5598 5600 5602 5603 5604 5605 5608 5612 5615 5617 5620 5624 5628 5634 5640 5647 5653 5659 5665 5672 5679 5685 5691 5697 5702 5708 5713 5717 5721 5726 5731 5735 5739 5744 5748 5751 5755 5760 5764 5769 5772 5775 5779 5782 5786 5788 5790 5792 5793 5794 5796 5797 5798 5799 5801
5617 5616 5615 5613 5613 5611 5609 5608 5607 5606 5604 5603 5602 5600 5599 5598 5595 5591 5587 5584 5582 5575 5571 5574 5574 5572 5577 5585 5588 5590 5592 5592 5592 5594 5595 5596 5597 5600 5603 5606 5608 5613 5617 5623 5629 5634 5641 5648 5655 5661 5668 5675 5681 5687 5693 5698 5703 5709 5713 5717 5722 5727 5731 5736 5740 5743 5747 5752 5756 5761 5765 5768 5772 5775 5779 5782 5784 5786 5788 5789 5791 5792 5793 5795 5796 5797
5617 5616 5614 5613 5612 5610 5608 5607 5605 5603 5602 5601 5600 5598 5596 5594 5591 5588 5584 5580 5576 5572 5570 5569 5565 5565 5572 5579 5581 5584 5585 5585 5585 5586 5587 5589 5591 5593 5595 5597 5600 5606 5612 5618 5623 5630 5636 5643 5650 5656 5664 5670 5676 5682 5689 5694 5699 5705 5710 5714 5718 5723 5728 5732 5736 5740 5744 5748 5752 5757 5762 5765 5768 5771 5775 5778 5780 5782 5784 5785 5787 5788 5789 5792 5793 5794
5617 5615 5614 5613 5611 5609 5607 5606 5604 5602 5601 5600 5599 5597 5594 5591 5588 5584 5581 5578 5574 5570 5568 5565 5561 5562 5569 5574 5574 5576 5577 5577 5578 5581 5582 5584 5586 5587 5590 5592 5595 5600 5606 5613 5620 5627 5633 5639 5646 5652 5659 5666 5672 5678 5685 5690 5695 5700 5705 5710 5715 5719 5724 5728 5732 5736 5741 5744 5748 5753 5758 5761 5764 5767 5771 5774 5776 5778 5780 5781 5783 5784 5786 5788 5790 5790
5617 5616 5614 5612 5611 5609 5607 5605 5603 5601 5599 5598 5597 5594 5592 5588 5584 5581 5578 5576 5573 5569 5565 5562 5560 5561 5566 5567 5565 5567 5569 5569 5571 5574 5576 5578 5581 5582 5585 5588 5590 5594 5600 5607 5614 5621 5628 5634 5641 5648 5655 5661 5667 5674 5680 5685 5691 5696 5701 5706 5711 5715 5720 5724 5729 5733 5737 5740 5744 5749 5753 5757 5760 5763 5766 5769 5772 5773 5776 5778 5780 5781 5783 5784 5785 5786
5617 5615 5614 5611 5609 5608 5606 5604 5602 5600 5598 5597 5595 5592 5589 5586 5581 5578 5576 5573 5571 5568 5564 5560 5558 5558 5559 5560 5560 5562 5563 5563 5565 5568 5569 5572 5574 5576 5578 5581 5584 5589 5594 5600 5608 5615 5622 5628 5635 5643 5651 5657 5663 5670 5676 5681 5687 5692 5697 5703 5708 5712 5716 5721 5726 5730 5733 5736 5741 5745 5748 5752 5756 5759 5762 5764 5766 5769 5772 5774 5776 5778 5779 5780 5781 5782
5617 5615 5613 5611 5609 5606 5604 5602 5600 5598 5597 5596 5594 5592 5588 5584 5579 5576 5574 5572 5569 5566 5563 5560 5557 5556 5555 5555 5556 5556 5557 5558 5559 5560 5562 5564 5566 5569 5572 5575 5579 5583 5588 5595 5602 5609 5616 5622 5630 5640 5648 5654 5660 5667 5672 5678 5684 5689 5693 5699 5704 5708 5713 5718 5722 5726 5729 5732 5736 5740 5743 5747 5751 5755 5757 5759 5761 5764 5768 5770 5772 5773 5775 5775 5777 5778
5617 5615 5613 5611 5609 5606 5604 5602 5599 5598 5597 5596 5594 5591 5587 5583 5578 5574 5572 5571 5568 5564 5562 5559 5556 5554 5553 5552 5551 5551 5551 5552 5551 5551 5553 5555 5557 5560 5564 5567 5572 5577 5582 5590 5597 5604 5611 5618 5627 5636 5644 5651 5658 5664 5669 5675 5681 5685 5690 5695 5700 5705 5709 5714 5718 5722 5725 5728 5732 5736 5740 5743 5747 5750 5753 5754 5757 5760 5763 5766 5768 5769 5770 5771 5773 5774
5617 5615 5613 5611 5609 5606 5604 5602 5600 5598 5597 5595 5592 5589 5586 5582 5578 5575 5572 5570 5566 5562 5559 5557 5555 5553 5551 5550 5549 5547 5546 5545 5543 5543 5546 5548 5550 5554 5557 5561 5566 5572 5578 5586 5594 5601 5609 5617 5626 5635 5642 5649 5655 5661 5667 5672 5678 5682 5686 5691 5697 5701 5705 5710 5714 5717 5721 5725 5729 5733 5736 5739 5743 5746 5749 5750 5753 5757 5760 5762 5763 5765 5766 5767 5769 5770
5617 5615 5613 5611 5609 5607 5604 5602 5600 5598 5596 5594 5591 5588 5585 5582 5579 5575 5572 5569 5564 5560 5558 5556 5554 5551 5549 5549 5548 5546 5544 5541 5538 5539 5542 5545 5547 5550 5553 5558 5564 5570 5577 5585 5593 5601 5609 5618 5626 5634 5639 5645 5651 5657 5662 5668 5674 5679 5683 5688 5693 5697 5701 5706 5710 5713 5718 5723 5727 5729 5732 5736 5739 5742 5745 5747 5750 5753 5755 5757 5759 5760 5762 5763 5764 5765
5618 5616 5614 5612 5609 5607 5605 5602 5600 5598 5595 5593 5590 5587 5584 5581 5579 5576 5573 5569 5565 5561 5557 5555 5553 5550 5548 5548 5547 5546 5544 5541 5538 5538 5539 5541 5544 5547 5551 5557 5562 5568 5575 5583 5592 5600 5609 5616 5623 5629 5634 5641 5647 5653 5659 5664 5670 5674 5679 5685 5689 5692 5698 5704 5707 5711 5716 5721 5724 5726 5729 5732 5736 5738 5741 5743 5746 5749 5751 5753 5754 5756 5757 5758 5759 5761
5618 5617 5615 5613 5610 5608 5606 5604 5601 5598 5595 5592 5590 5587 5584 5581 5578 5575 5571 5568 5565 5562 5559 5557 5553 5551 5549 5548 5548 5547 5546 5544 5542 5540 5539 5540 5543 5546 5551 5557 5563 5569 5576 5583 5590 5598 5606 5612 5618 5625 5632 5639 5645 5651 5656 5661 5666 5670 5676 5681 5685 5689 5695 5701 5705 5709 5714 5718 5721 5723 5726 5729 5731 5734 5737 5740 5742 5745 5747 5748 5749 5751 5752 5754 5755 5756
5619 5617 5615 5613 5611 5609 5607 5604 5601 5598 5595 5593 5590 5587 5584 5582 5579 5574 5569 5566 5564 5563 5562 5559 5555 5553 5552 5551 5550 5550 5549 5547 5546 5546 5545 5545 5546 5549 5553 5558 5564 5570 5577 5583 5589 5596 5603 5610 5617 5623 5630 5636 5642 5648 5653 5658 5662 5667 5673 5677 5681 5686 5693 5698 5702 5706 5711 5715 5718 5720 5722 5725 5727 5730 5734 5736 5738 5740 5742 5743 5745 5747 5748 5749 5751 5752
5620 5618 5616 5614 5612 5609 5606 5604 5602 5599 5596 5593 5590 5587 5584 5582 5578 5574 5572 5571 5567 5564 5563 5561 5558 5557 5556 5554 5553 5553 5552 5550 5550 5550 5551 5552 5552 5554 5558 5561 5566 5571 5577 5583 5590 5596 5603 5610 5616 5623 5629 5635 5640 5646 5651 5655 5660 5665 5670 5674 5679 5684 5690 5695 5698 5703 5708 5711 5713 5716 5718 5721 5724 5727 5729 5731 5733 5735 5737 5739 5741 5743 5744 5745 5746 5748
5620 5619 5617 5614 5611 5609 5606 5604 5602 5599 5596 5594 5591 5588 5585 5582 5579 5577 5577 5575 5571 5568 5566 5565 5563 5562 5560 5557 5556 5554 5553 5553 5553 5555 5557 5558 5558 5559 5562 5565 5569 5574 5579 5585 5591 5598 5604 5610 5617 5623 5629 5634 5639 5643 5648 5653 5658 5663 5667 5672 5677 5682 5687 5691 5695 5699 5703 5706 5709 5712 5715 5718 5721 5723 5725 5727 5729 5731 5733 5736 5738 5739 5740 5740 5742 5744
5620 5619 5616 5613 5610 5608 5606 5603 5601 5599 5597 5594 5591 5588 5587 5585 5583 5581 5579 5577 5575 5572 5570 5567 5565 5564 5563 5561 5560 5559 5558 5558 5558 5559 5561 5562 5562 5564 5566 5569 5572 5576 5581 5587 5593 5598 5605 5611 5616 5622 5627 5632 5637 5641 5646 5651 5656 5661 5666 5671 5675 5680 5685 5689 5692 5696 5700 5703 5706 5709 5712 5715 5717 5719 5721 5723 5726 5728 5730 5732 5733 5734 5735 5736 5738 5740
5620 5618 5616 5614 5612 5609 5606 5604 5603 5602 5600 5598 5594 5592 5590 5588 5586 5583 5581 5579 5578 5575 5573 5569 5566 5566 5565 5563 5561 5562 5563 5562 5560 5561 5562 5564 5566 5569 5571 5572 5575 5578 5582 5587 5593 5598 5604 5610 5616 5621 5626 5630 5635 5640 5645 5650 5655 5659 5664 5669 5673 5678 5682 5686 5690 5693 5697 5701 5703 5706 5709 5711 5713 5715 5717 5720 5722 5724 5726 5728 5729 5730 5731 5732 5734 5736
5621 5619 5617 5616 5614 5612 5609 5607 5605 5604 5602 5601 5598 5595 5592 5590 5588 5586 5584 5583 5580 5578 5576 5573 5571 5570 5567 5564 5562 5563 5565 5564 5562 5561 5562 5566 5570 5573 5575 5576 5578 5581 5583 5587 5593 5598 5604 5609 5614 5620 5625 5630 5635 5639 5644 5648 5653 5658 5662 5667 5671 5676 5680 5684 5688 5691 5695 5698 5700 5703 5705 5707 5709 5711 5714 5716 5718 5720 5722 5723 5725 5726 5727 5729 5730 5732
5622 5620 5619 5617 5615 5613 5611 5609 5607 5605 5604 5602 5601 5598 5594 5592 5590 5588 5586 5585 5583 5581 5578 5576 5575 5573 5569 5565 5564 5566 5568 5569 5567 5565 5566 5569 5572 5575 5577 5578 5580 5583 5586 5588 5592 5597 5603 5609 5614 5619 5624 5628 5633 5638 5642 5647 5651 5655 5660 5665 5669 5673 5677 5681 5685 5688 5691 5694 5697 5699 5701 5703 5706 5708 5710 5712 5714 5716 5718 5719 5721 5722 5724 5725 5727 5728
5623 5621 5620 5618 5616 5614 5612 5610 5608 5606 5604 5603 5601 5599 5597 5594 5592 5590 5588 5587 5584 5582 5580 5578 5578 5576 5573 5569 5568 5569 5571 5572 5571 5571 5572 5573 5574 5576 5577 5580 5584 5587 5590 5591 5593 5596 5600 5606 5612 5618 5623 5627 5632 5636 5640 5645 5649 5653 5658 5662 5666 5670 5674 5678 5682 5685 5688 5690 5693 5695 5697 5700 5702 5704 5706 5708 5710 5712 5714 5715 5717 5718 5720 5721 5723 5724
5623 5622 5620 5619 5617 5616 5615 5613 5611 5609 5607 5605 5603 5601 5598 5595 5593 5592 5590 5589 5586 5584 5583 5581 5580 5579 5577 5575 5574 5574 5574 5575 5575 5576 5576 5576 5576 5578 5579 5581 5587 5592 5594 5595 5597 5599 5602 5604 5608 5613 5619 5625 5630 5634 5639 5643 5647 5651 5656 5660 5664 5668 5672 5676 5678 5681 5684 5686 5689 5691 5694 5696 5698 5700 5702 5704 5706 5708 5710 5711 5713 5714 5716 5717 5718 5720
5624 5623 5621 5619 5619 5618 5616 5615 5613 5610 5608 5606 5604 5602 5600 5598 5595 5594 5592 5591 5589 5586 5585 5584 5583 5581 5580 5580 5580 5580 5579 5579 5579 5579 5579 5579 5580 5581 5582 5585 5590 5595 5597 5599 5601 5604 5606 5609 5612 5615 5619 5623 5627 5631 5636 5641 5646 5650 5653 5657 5661 5665 5669 5672 5675 5678 5680 5683 5686 5688 5691 5693 5695 5697 5698 5700 5702 5704 5706 5707 5709 5710 5712 5713 5715 5716
5625 5623 5621 5619 5618 5617 5616 5614 5613 5611 5609 5607 5605 5603 5602 5600 5597 5596 5594 5593 5591 5589 5587 5586 5586 5585 5584 5584 5584 5584 5584 5583 5583 5583 5583 5583 5584 5586 5588 5591 5594 5597 5599 5602 5605 5607 5609 5612 5616 5619 5622 5626 5629 5632 5634 5637 5642 5646 5651 5654 5658 5662 5666 5669 5672 5675 5678 5681 5683 5686 5688 5690 5692 5693 5695 5697 5699 5701 5703 5704 5705 5706 5707 5709 5710 5712